• In Lithuania
  • List of Countries
  • For 7 days
  • Water Temperature
  • Satellite Maps
  • Weather Map
  • Weather Widgets
  • user-avatar
    Login

    Hourly Weather Kaprun

    Today, 24 November, Friday

    Time Temperature Precipitation Wind Pressure Humidity
    00:00 -3°C° 0 mm 1 mps 595 mmHg 73%
    01:00 -2°C° 0 mm 1 mps 595 mmHg 71%
    02:00 -2°C° 0 mm 1 mps 595 mmHg 73%
    03:00 -3°C° 0 mm 1 mps 595 mmHg 74%
    04:00 -3°C° 0 mm 1 mps 595 mmHg 75%
    05:00 -3°C° 0 mm 1 mps 595 mmHg 76%
    06:00 -6°C° 0 mm 2 mps 595 mmHg 77%
    07:00 -6°C° 0 mm 2 mps 595 mmHg 77%
    08:00 -4°C° 0 mm 2 mps 595 mmHg 77%
    09:00 -3°C° 0 mm 2 mps 596 mmHg 77%
    10:00 -1°C° 0 mm 2 mps 597 mmHg 77%
    11:00 +1°C° 0 mm 2 mps 597 mmHg 78%
    12:00 +2°C° 0 mm 2 mps 597 mmHg 80%
    13:00 +3°C° 0 mm 2 mps 597 mmHg 81%
    14:00 +2°C° 0 mm 2 mps 596 mmHg 83%
    15:00 -1°C° 0 mm 2 mps 596 mmHg 84%
    16:00 -2°C° 0 mm 2 mps 595 mmHg 85%
    17:00 -2°C° 0 mm 2 mps 595 mmHg 85%
    18:00 -3°C° 0 mm 2 mps 595 mmHg 85%
    19:00 -4°C° 0 mm 2 mps 595 mmHg 84%
    20:00 -4°C° 0 mm 2 mps 595 mmHg 85%
    21:00 -4°C° 0 mm 2 mps 594 mmHg 85%
    22:00 -4°C° 0 mm 2 mps 594 mmHg 86%
    23:00 -4°C° 0 mm 2 mps 594 mmHg 87%

    Tomorrow, 25 November, Saturday

    Time Temperature Precipitation Wind Pressure Humidity
    00:00 -4°C° 0 mm 2 mps 594 mmHg 87%
    01:00 -4°C° 0 mm 2 mps 594 mmHg 88%
    02:00 -4°C° 0 mm 2 mps 593 mmHg 89%
    03:00 -4°C° 0 mm 2 mps 592 mmHg 90%
    04:00 -5°C° 0 mm 2 mps 592 mmHg 91%
    05:00 -5°C° 0 mm 2 mps 591 mmHg 92%
    06:00 -6°C° 0 mm 3 mps 591 mmHg 92%
    07:00 -5°C° 0 mm 3 mps 590 mmHg 93%
    08:00 -5°C° 0 mm 3 mps 590 mmHg 92%
    09:00 -4°C° 0 mm 3 mps 590 mmHg 91%
    10:00 -3°C° 0 mm 4 mps 590 mmHg 89%
    11:00 -1°C° 0.1 mm 3 mps 590 mmHg 90%
    12:00 -1°C° 0.1 mm 3 mps 590 mmHg 91%
    13:00 +1°C° 0.1 mm 2 mps 590 mmHg 91%
    14:00 -1°C° 1.4 mm 2 mps 590 mmHg 93%
    15:00 -2°C° 1.4 mm 2 mps 590 mmHg 95%
    16:00 -2°C° 1.4 mm 2 mps 590 mmHg 97%
    17:00 -3°C° 1.8 mm 2 mps 590 mmHg 96%
    18:00 -4°C° 1.8 mm 2 mps 591 mmHg 96%
    19:00 -5°C° 1.8 mm 3 mps 591 mmHg 95%
    20:00 -6°C° 1.5 mm 3 mps 591 mmHg 96%
    21:00 -6°C° 1.5 mm 3 mps 591 mmHg 96%
    22:00 -6°C° 1.5 mm 2 mps 591 mmHg 96%
    23:00 -7°C° 0.9 mm 3 mps 591 mmHg 96%

    Day after tomorrow, 26 November, Sunday

    Time Temperature Precipitation Wind Pressure Humidity
    00:00 -8°C° 0.9 mm 3 mps 591 mmHg 95%
    01:00 -8°C° 0.9 mm 3 mps 591 mmHg 95%
    02:00 -8°C° 0.7 mm 3 mps 591 mmHg 95%
    03:00 -9°C° 0.7 mm 3 mps 591 mmHg 94%
    04:00 -9°C° 0.7 mm 3 mps 591 mmHg 94%
    05:00 -10°C° 1.3 mm 3 mps 591 mmHg 95%
    06:00 -10°C° 1.3 mm 3 mps 592 mmHg 95%
    07:00 -10°C° 1.3 mm 3 mps 592 mmHg 95%
    08:00 -10°C° 1.1 mm 3 mps 593 mmHg 95%
    09:00 -10°C° 1.1 mm 3 mps 593 mmHg 94%
    10:00 -12°C° 1.1 mm 3 mps 594 mmHg 94%
    11:00 -10°C° 0.7 mm 3 mps 594 mmHg 93%
    12:00 -10°C° 0.7 mm 3 mps 594 mmHg 92%
    13:00 -10°C° 0.7 mm 3 mps 594 mmHg 92%
    14:00 -12°C° 0.3 mm 3 mps 595 mmHg 92%
    15:00 -12°C° 0.3 mm 3 mps 595 mmHg 93%
    16:00 -12°C° 0.3 mm 3 mps 595 mmHg 93%
    17:00 -13°C° 0.1 mm 3 mps 595 mmHg 94%
    18:00 -14°C° 0.1 mm 3 mps 595 mmHg 94%
    19:00 -14°C° 0.1 mm 3 mps 595 mmHg 94%
    20:00 -15°C° 0.1 mm 3 mps 595 mmHg 94%
    21:00 -16°C° 0.1 mm 3 mps 595 mmHg 94%
    22:00 -16°C° 0.1 mm 3 mps 595 mmHg 94%
    23:00 -17°C° 0.1 mm 3 mps 595 mmHg 93%

    27 November, Monday

    Time Temperature Precipitation Wind Pressure Humidity
    00:00 -17°C° 0.1 mm 3 mps 595 mmHg 93%
    01:00 -17°C° 0.1 mm 2 mps 595 mmHg 92%
    02:00 -17°C° 0.1 mm 2 mps 595 mmHg 93%
    03:00 -17°C° 0.1 mm 2 mps 595 mmHg 93%
    04:00 -17°C° 0.1 mm 2 mps 596 mmHg 93%
    05:00 -17°C° 0.1 mm 2 mps 596 mmHg 93%
    06:00 -17°C° 0.1 mm 2 mps 596 mmHg 93%
    07:00 -17°C° 0.1 mm 2 mps 596 mmHg 93%
    08:00 -16°C° 0 mm 2 mps 597 mmHg 91%
    09:00 -14°C° 0 mm 2 mps 597 mmHg 89%
    10:00 -13°C° 0 mm 2 mps 598 mmHg 87%
    11:00 -12°C° 0 mm 2 mps 598 mmHg 85%
    12:00 -10°C° 0 mm 2 mps 598 mmHg 82%
    13:00 -8°C° 0 mm 1 mps 598 mmHg 80%
    14:00 -9°C° 0 mm 1 mps 598 mmHg 83%
    15:00 -10°C° 0 mm 1 mps 597 mmHg 87%
    16:00 -12°C° 0 mm 1 mps 596 mmHg 90%
    17:00 -12°C° 0 mm 1 mps 596 mmHg 88%
    18:00 -15°C° 0 mm 2 mps 596 mmHg 86%
    19:00 -16°C° 0 mm 2 mps 595 mmHg 84%
    20:00 -16°C° 0 mm 2 mps 595 mmHg 80%
    21:00 -16°C° 0 mm 2 mps 595 mmHg 76%
    22:00 -16°C° 0 mm 2 mps 595 mmHg 72%
    23:00 -16°C° 0 mm 2 mps 595 mmHg 70%

    28 November, Tuesday

    Time Temperature Precipitation Wind Pressure Humidity
    00:00 -14°C° 0 mm 1 mps 595 mmHg 68%
    01:00 -14°C° 0 mm 1 mps 595 mmHg 66%
    02:00 -13°C° 0 mm 1 mps 594 mmHg 65%
    03:00 -13°C° 0 mm 1 mps 594 mmHg 64%
    04:00 -13°C° 0 mm 1 mps 594 mmHg 63%
    05:00 -12°C° 0 mm 1 mps 594 mmHg 63%
    06:00 -12°C° 0 mm 1 mps 593 mmHg 63%
    07:00 -12°C° 0 mm 1 mps 593 mmHg 63%
    08:00 -10°C° 0 mm 1 mps 594 mmHg 66%
    09:00 -8°C° 0 mm 1 mps 594 mmHg 69%
    10:00 -6°C° 0 mm 1 mps 595 mmHg 71%
    11:00 -6°C° 0 mm 2 mps 595 mmHg 74%
    12:00 -5°C° 0 mm 2 mps 594 mmHg 76%
    13:00 -4°C° 0 mm 2 mps 594 mmHg 79%
    14:00 -5°C° 0 mm 2 mps 593 mmHg 80%
    15:00 -6°C° 0 mm 1 mps 592 mmHg 81%
    16:00 -7°C° 0 mm 1 mps 591 mmHg 82%
    17:00 -8°C° 0 mm 1 mps 591 mmHg 80%
    18:00 -10°C° 0 mm 2 mps 590 mmHg 77%
    19:00 -12°C° 0 mm 2 mps 590 mmHg 75%
    20:00 -12°C° 0 mm 2 mps 589 mmHg 73%
    21:00 -13°C° 0 mm 2 mps 589 mmHg 72%
    22:00 -13°C° 0 mm 2 mps 589 mmHg 70%
    23:00 -13°C° 0 mm 2 mps 588 mmHg 71%

    29 November, Wednesday

    Time Temperature Precipitation Wind Pressure Humidity
    00:00 -13°C° 0 mm 2 mps 588 mmHg 71%
    01:00 -13°C° 0 mm 2 mps 588 mmHg 72%
    02:00 -14°C° 0 mm 2 mps 587 mmHg 72%
    03:00 -14°C° 0 mm 2 mps 587 mmHg 73%
    04:00 -14°C° 0 mm 2 mps 587 mmHg 73%
    05:00 -12°C° 0 mm 1 mps 587 mmHg 74%
    06:00 -12°C° 0 mm 1 mps 587 mmHg 74%
    07:00 -12°C° 0 mm 1 mps 586 mmHg 75%
    08:00 -10°C° 0 mm 1 mps 587 mmHg 76%
    09:00 -9°C° 0 mm 1 mps 588 mmHg 77%
    10:00 -8°C° 0 mm 1 mps 588 mmHg 78%
    11:00 -7°C° 0 mm 1 mps 588 mmHg 79%
    12:00 -6°C° 0 mm 1 mps 588 mmHg 80%
    13:00 -4°C° 0 mm 1 mps 588 mmHg 81%
    14:00 -6°C° 0.1 mm 1 mps 588 mmHg 86%
    15:00 -7°C° 0.1 mm 1 mps 588 mmHg 90%
    16:00 -7°C° 0.1 mm 1 mps 588 mmHg 95%
    17:00 -8°C° 0.5 mm 1 mps 588 mmHg 95%
    18:00 -8°C° 0.5 mm 1 mps 588 mmHg 96%
    19:00 -8°C° 0.5 mm 1 mps 588 mmHg 97%
    20:00 -8°C° 0.5 mm 1 mps 589 mmHg 96%
    21:00 -9°C° 0.5 mm 2 mps 589 mmHg 96%
    22:00 -9°C° 0.5 mm 2 mps 589 mmHg 96%
    23:00 -10°C° 0.6 mm 2 mps 589 mmHg 96%
    Show more